When you browse on this site, cookies collect data to enhance your experience and personalize the content and advertising you see.
Visit our Privacy Policy to learn more. By continuing to use the site, you agree to this use of cookies and data.
  • En España
  • Lista de países
  • Para 7 días
  • Temperatura del agua
  • El tiempo en el mapa
  • Informadores
  • user-avatar
    Iniciar sesión

    Tiempo cada hora Brasília

    Hoy, 25 Febrero, Martes

    Tiempo Temperatura Precipitaciones Viento Presión Humedad
    00:00 +19°C° 0 mm 0 mps 666 mmHg 87%
    01:00 +19°C° 0 mm 0 mps 665 mmHg 87%
    02:00 +19°C° 0 mm 0 mps 665 mmHg 88%
    03:00 +21°C° 0 mm 1 mps 665 mmHg 88%
    04:00 +21°C° 0 mm 1 mps 665 mmHg 88%
    05:00 +21°C° 0 mm 1 mps 665 mmHg 89%
    06:00 +20°C° 0 mm 1 mps 665 mmHg 89%
    07:00 +22°C° 0.4 mm 1 mps 666 mmHg 87%
    08:00 +23°C° 0.4 mm 1 mps 667 mmHg 84%
    09:00 +25°C° 0.4 mm 2 mps 667 mmHg 81%
    10:00 +26°C° 1.2 mm 2 mps 667 mmHg 78%
    11:00 +27°C° 1.2 mm 2 mps 667 mmHg 76%
    12:00 +27°C° 1.2 mm 2 mps 667 mmHg 74%
    13:00 +28°C° 1.4 mm 2 mps 666 mmHg 73%
    14:00 +28°C° 1.4 mm 2 mps 666 mmHg 72%
    15:00 +28°C° 1.4 mm 2 mps 665 mmHg 71%
    16:00 +27°C° 1.3 mm 2 mps 665 mmHg 74%
    17:00 +26°C° 1.3 mm 1 mps 664 mmHg 78%
    18:00 +23°C° 1.3 mm 0 mps 664 mmHg 81%
    19:00 +24°C° 0.8 mm 1 mps 664 mmHg 82%
    20:00 +24°C° 0.8 mm 1 mps 664 mmHg 84%
    21:00 +23°C° 0.8 mm 1 mps 665 mmHg 85%
    22:00 +22°C° 1.2 mm 1 mps 665 mmHg 87%
    23:00 +22°C° 1.2 mm 1 mps 665 mmHg 88%

    Mañana, 26 Febrero, Miércoles

    Tiempo Temperatura Precipitaciones Viento Presión Humedad
    00:00 +22°C° 1.2 mm 1 mps 665 mmHg 90%
    01:00 +22°C° 1 mm 1 mps 665 mmHg 91%
    02:00 +21°C° 1 mm 1 mps 665 mmHg 92%
    03:00 +21°C° 1 mm 1 mps 664 mmHg 93%
    04:00 +21°C° 0.5 mm 1 mps 664 mmHg 93%
    05:00 +21°C° 0.5 mm 1 mps 664 mmHg 93%
    06:00 +21°C° 0.5 mm 1 mps 664 mmHg 93%
    07:00 +22°C° 0.7 mm 1 mps 665 mmHg 90%
    08:00 +23°C° 0.7 mm 2 mps 666 mmHg 88%
    09:00 +24°C° 0.7 mm 2 mps 666 mmHg 85%
    10:00 +25°C° 1.5 mm 2 mps 666 mmHg 81%
    11:00 +26°C° 1.5 mm 2 mps 666 mmHg 78%
    12:00 +27°C° 1.5 mm 2 mps 666 mmHg 74%
    13:00 +27°C° 1.6 mm 2 mps 665 mmHg 74%
    14:00 +27°C° 1.6 mm 2 mps 665 mmHg 75%
    15:00 +28°C° 1.6 mm 2 mps 664 mmHg 75%
    16:00 +27°C° 1 mm 2 mps 663 mmHg 78%
    17:00 +26°C° 1 mm 2 mps 663 mmHg 82%
    18:00 +25°C° 1 mm 2 mps 663 mmHg 85%
    19:00 +24°C° 0.7 mm 1 mps 663 mmHg 85%
    20:00 +24°C° 0.7 mm 1 mps 663 mmHg 86%
    21:00 +23°C° 0.7 mm 1 mps 664 mmHg 86%
    22:00 +23°C° 1.5 mm 1 mps 664 mmHg 88%
    23:00 +21°C° 1.5 mm 2 mps 664 mmHg 89%

    Pasado mañana, 27 Febrero, Jueves

    Tiempo Temperatura Precipitaciones Viento Presión Humedad
    00:00 +21°C° 1.5 mm 2 mps 664 mmHg 91%
    01:00 +21°C° 1.2 mm 2 mps 664 mmHg 92%
    02:00 +20°C° 1.2 mm 2 mps 664 mmHg 93%
    03:00 +20°C° 1.2 mm 2 mps 663 mmHg 94%
    04:00 +20°C° 0.7 mm 2 mps 663 mmHg 94%
    05:00 +20°C° 0.7 mm 2 mps 664 mmHg 94%
    06:00 +20°C° 0.7 mm 2 mps 664 mmHg 95%
    07:00 +21°C° 0 mm 2 mps 664 mmHg 92%
    08:00 +21°C° 0 mm 2 mps 665 mmHg 90%
    09:00 +23°C° 0 mm 1 mps 665 mmHg 88%
    10:00 +24°C° 0 mm 2 mps 665 mmHg 82%
    11:00 +26°C° 0 mm 2 mps 665 mmHg 77%
    12:00 +27°C° 0 mm 2 mps 665 mmHg 72%
    13:00 +27°C° 0.1 mm 2 mps 664 mmHg 73%
    14:00 +27°C° 0.1 mm 3 mps 664 mmHg 74%
    15:00 +27°C° 0.1 mm 3 mps 663 mmHg 74%
    16:00 +26°C° 0.2 mm 2 mps 663 mmHg 77%
    17:00 +26°C° 0.2 mm 2 mps 663 mmHg 80%
    18:00 +25°C° 0.2 mm 2 mps 662 mmHg 83%
    19:00 +24°C° 1.2 mm 2 mps 663 mmHg 85%
    20:00 +23°C° 1.2 mm 2 mps 663 mmHg 88%
    21:00 +23°C° 1.2 mm 1 mps 664 mmHg 90%
    22:00 +22°C° 0.9 mm 1 mps 664 mmHg 90%
    23:00 +22°C° 0.9 mm 1 mps 664 mmHg 90%

    28 Febrero, Viernes

    Tiempo Temperatura Precipitaciones Viento Presión Humedad
    00:00 +22°C° 0.9 mm 1 mps 664 mmHg 89%
    01:00 +22°C° 0.9 mm 1 mps 664 mmHg 90%
    02:00 +22°C° 0.9 mm 1 mps 664 mmHg 91%
    03:00 +21°C° 0.9 mm 1 mps 663 mmHg 92%
    04:00 +21°C° 0.8 mm 1 mps 664 mmHg 93%
    05:00 +19°C° 0.8 mm 0 mps 664 mmHg 93%
    06:00 +19°C° 0.8 mm 0 mps 664 mmHg 94%
    07:00 +22°C° 0.6 mm 1 mps 665 mmHg 91%
    08:00 +23°C° 0.6 mm 2 mps 666 mmHg 89%
    09:00 +24°C° 0.6 mm 2 mps 666 mmHg 86%
    10:00 +24°C° 1.4 mm 2 mps 666 mmHg 86%
    11:00 +24°C° 1.4 mm 3 mps 666 mmHg 86%
    12:00 +24°C° 1.4 mm 3 mps 666 mmHg 86%
    13:00 +24°C° 1.1 mm 3 mps 666 mmHg 86%
    14:00 +24°C° 1.1 mm 2 mps 665 mmHg 87%
    15:00 +24°C° 1.1 mm 2 mps 665 mmHg 87%
    16:00 +24°C° 0.7 mm 2 mps 664 mmHg 89%
    17:00 +23°C° 0.7 mm 1 mps 664 mmHg 90%
    18:00 +20°C° 0.7 mm 0 mps 664 mmHg 92%
    19:00 +22°C° 0.2 mm 1 mps 664 mmHg 93%
    20:00 +22°C° 0.2 mm 1 mps 665 mmHg 93%
    21:00 +22°C° 0.2 mm 1 mps 665 mmHg 94%
    22:00 +21°C° 0 mm 1 mps 665 mmHg 93%
    23:00 +21°C° 0 mm 1 mps 665 mmHg 93%

    29 Febrero, Sábado

    Tiempo Temperatura Precipitaciones Viento Presión Humedad
    00:00 +21°C° 0 mm 1 mps 665 mmHg 92%
    01:00 +21°C° 0.3 mm 1 mps 665 mmHg 92%
    02:00 +21°C° 0.3 mm 1 mps 665 mmHg 92%
    03:00 +21°C° 0.3 mm 1 mps 665 mmHg 92%
    04:00 +21°C° 0.9 mm 1 mps 665 mmHg 93%
    05:00 +21°C° 0.9 mm 1 mps 665 mmHg 94%
    06:00 +20°C° 0.9 mm 1 mps 665 mmHg 95%
    07:00 +21°C° 0.4 mm 1 mps 666 mmHg 94%
    08:00 +21°C° 0.4 mm 1 mps 666 mmHg 94%
    09:00 +21°C° 0.4 mm 1 mps 667 mmHg 94%
    10:00 +22°C° 0.6 mm 1 mps 667 mmHg 91%
    11:00 +23°C° 0.6 mm 1 mps 667 mmHg 88%
    12:00 +24°C° 0.6 mm 1 mps 667 mmHg 85%
    13:00 +25°C° 0.9 mm 2 mps 666 mmHg 82%
    14:00 +26°C° 0.9 mm 2 mps 666 mmHg 80%
    15:00 +26°C° 0.9 mm 3 mps 666 mmHg 77%
    16:00 +25°C° 1.1 mm 2 mps 665 mmHg 81%
    17:00 +24°C° 1.1 mm 2 mps 665 mmHg 85%
    18:00 +24°C° 1.1 mm 2 mps 665 mmHg 89%
    19:00 +23°C° 0.7 mm 1 mps 665 mmHg 89%
    20:00 +22°C° 0.7 mm 1 mps 665 mmHg 89%
    21:00 +20°C° 0.7 mm 0 mps 666 mmHg 88%
    22:00 +20°C° 0.1 mm 0 mps 666 mmHg 89%
    23:00 +21°C° 0.1 mm 1 mps 666 mmHg 89%

    1 Marzo, Domingo

    Tiempo Temperatura Precipitaciones Viento Presión Humedad
    00:00 +21°C° 0.1 mm 1 mps 666 mmHg 90%
    01:00 +21°C° 0.1 mm 1 mps 666 mmHg 90%
    02:00 +19°C° 0.1 mm 0 mps 665 mmHg 90%
    03:00 +19°C° 0.1 mm 0 mps 665 mmHg 90%
    04:00 +19°C° 0 mm 0 mps 665 mmHg 91%
    05:00 +19°C° 0 mm 0 mps 665 mmHg 91%
    06:00 +19°C° 0 mm 0 mps 665 mmHg 91%
    07:00 +19°C° 0.1 mm 0 mps 666 mmHg 91%
    08:00 +19°C° 0.1 mm 0 mps 666 mmHg 91%
    09:00 +20°C° 0.1 mm 0 mps 667 mmHg 91%
    10:00 +20°C° 0.3 mm 0 mps 667 mmHg 89%
    11:00 +21°C° 0.3 mm 0 mps 667 mmHg 88%
    12:00 +21°C° 0.3 mm 0 mps 666 mmHg 86%
    13:00 +22°C° 0 mm 0 mps 666 mmHg 82%
    14:00 +25°C° 0 mm 1 mps 665 mmHg 78%
    15:00 +25°C° 0 mm 1 mps 665 mmHg 74%
    16:00 +25°C° 0 mm 1 mps 664 mmHg 77%
    17:00 +22°C° 0 mm 0 mps 664 mmHg 80%
    18:00 +22°C° 0 mm 0 mps 664 mmHg 84%
    19:00 +21°C° 0.5 mm 0 mps 664 mmHg 86%
    20:00 +20°C° 0.5 mm 0 mps 664 mmHg 88%
    21:00 +20°C° 0.5 mm 0 mps 664 mmHg 90%
    22:00 +22°C° 0.9 mm 1 mps 665 mmHg 89%
    23:00 +21°C° 0.9 mm 1 mps 665 mmHg 89%
    Mostrar más